| time (UTC) | temp F | wind direction | speed MPH | gust MPH | rain 1hr in | rain 24hr in | rain mn in | humidity % | barometer mb |
| 20260905152007 | 75 | 48 | 5.0 | 8.0 | 0.00 | 0.00 | 0.00 | 53 | 1014.2 |
| 20260905151008 | 75 | 25 | 8.0 | 12.0 | 0.00 | 0.00 | 0.00 | 53 | 1014.2 |
| 20260905145002 | 74 | 25 | 4.0 | 6.0 | 0.00 | 0.00 | 0.00 | 57 | 1014.2 |
| 20260905143002 | 74 | 3 | 4.0 | 7.0 | 0.00 | 0.00 | 0.00 | 58 | 1014.2 |
| 20260905142002 | 75 | 340 | 3.0 | 6.0 | 0.00 | 0.00 | 0.00 | 60 | 1014.2 |
| 20260905140003 | 74 | 3 | 4.0 | 5.0 | 0.00 | 0.00 | 0.00 | 64 | 1014.3 |
| 20260905135004 | 74 | 93 | 4.0 | 5.0 | 0.00 | 0.00 | 0.00 | 65 | 1014.3 |
| 20260905134005 | 73 | 340 | 3.0 | 4.0 | 0.00 | 0.00 | 0.00 | 66 | 1014.3 |
| 20260905132006 | 72 | 70 | 7.0 | 9.0 | 0.00 | 0.00 | 0.00 | 69 | 1014.2 |
| 20260905131001 | 71 | 3 | 5.0 | 7.0 | 0.00 | 0.00 | 0.00 | 70 | 1014.1 |
| 20260905125006 | 70 | 340 | 3.0 | 6.0 | 0.00 | 0.00 | 0.00 | 76 | 1014.2 |
| 20260905124001 | 70 | 3 | 2.0 | 4.0 | 0.00 | 0.00 | 0.00 | 77 | 1014.2 |
| 20260905123007 | 70 | 340 | 4.0 | 9.0 | 0.00 | 0.00 | 0.00 | 78 | 1014.2 |
| 20260905122002 | 69 | 3 | 0.0 | 1.0 | 0.00 | 0.00 | 0.00 | 79 | 1014.1 |
| 20260905121007 | 69 | 25 | 3.0 | 5.0 | 0.00 | 0.00 | 0.00 | 79 | 1014.1 |
| 20260905112002 | 65 | 205 | 1.0 | 1.0 | 0.00 | 0.00 | 0.00 | 89 | 1014.1 |
| 20260905111003 | 65 | 318 | 1.0 | 1.0 | 0.00 | 0.00 | 0.00 | 90 | 1014.2 |
| 20260905110004 | 65 | 183 | 0.0 | 1.0 | 0.00 | 0.00 | 0.00 | 89 | 1014.4 |
| 20260905104004 | 64 | 25 | 1.0 | 2.0 | 0.00 | 0.00 | 0.00 | 90 | 1013.9 |
| 20260905102003 | 64 | 25 | 0.0 | 1.0 | 0.00 | 0.00 | 0.00 | 89 | 1013.7 |
| 20260905101004 | 65 | 70 | 2.0 | 3.0 | 0.00 | 0.00 | 0.00 | 89 | 1013.3 |
| 20260905100002 | 65 | 48 | 1.0 | 2.0 | 0.00 | 0.00 | 0.00 | 89 | 1013.3 |
| 20260905094001 | 66 | 48 | 3.0 | 4.0 | 0.00 | 0.00 | 0.00 | 90 | 1013.2 |
| 20260905093002 | 66 | 48 | 2.0 | 3.0 | 0.00 | 0.00 | 0.00 | 91 | 1013.2 |
| 20260905085006 | 67 | 25 | 2.0 | 3.0 | 0.00 | 0.00 | 0.00 | 94 | 1013.3 |
| 20260905084006 | 67 | 183 | 1.0 | 1.0 | 0.00 | 0.00 | 0.00 | 94 | 1013.2 |
| 20260905082004 | 67 | 3 | 2.0 | 3.0 | 0.00 | 0.00 | 0.00 | 94 | 1012.9 |
| 20260905081003 | 67 | 48 | 2.0 | 3.0 | 0.00 | 0.00 | 0.00 | 93 | 1012.8 |
| 20260905080002 | 67 | 93 | 0.0 | 0.0 | 0.00 | 0.00 | 0.00 | 93 | 1012.8 |
| 20260905075002 | 67 | 205 | 1.0 | 1.0 | 0.00 | 0.00 | 0.00 | 93 | 1013.0 |
| 20260905073002 | 67 | 250 | 0.0 | 1.0 | 0.00 | 0.00 | 0.00 | 93 | 1013.2 |
| 20260905072002 | 67 | 228 | 0.0 | 1.0 | 0.00 | 0.00 | 0.00 | 93 | 1013.3 |
| 20260905071002 | 67 | 228 | 1.0 | 1.0 | 0.00 | 0.00 | 0.00 | 92 | 1013.3 |
| 20260905070002 | 67 | 273 | 0.0 | 1.0 | 0.00 | 0.00 | 0.00 | 92 | 1013.6 |
| 20260905065003 | 67 | 250 | 1.0 | 1.0 | 0.00 | 0.00 | 0.00 | 92 | 1013.8 |
| 20260905064003 | 68 | 228 | 0.0 | 1.0 | 0.00 | 0.00 | 0.00 | 92 | 1013.8 |
| 20260905063004 | 68 | 115 | 0.0 | 1.0 | 0.00 | 0.00 | 0.00 | 91 | 1013.8 |
| 20260905062005 | 68 | 115 | 0.0 | 1.0 | 0.00 | 0.00 | 0.00 | 91 | 1013.8 |
| 20260905061006 | 68 | 138 | 0.0 | 1.0 | 0.00 | 0.00 | 0.00 | 91 | 1013.8 |
| 20260905055004 | 68 | 70 | 1.0 | 2.0 | 0.00 | 0.00 | 0.00 | 90 | 1014.0 |
| 20260905054005 | 68 | 48 | 1.0 | 3.0 | 0.00 | 0.00 | 0.00 | 90 | 1014.1 |
| 20260905053006 | 68 | 318 | 1.0 | 1.0 | 0.00 | 0.00 | 0.00 | 90 | 1014.1 |
| 20260905052001 | 68 | 340 | 1.0 | 2.0 | 0.00 | 0.00 | 0.00 | 89 | 1014.2 |
| 20260905051002 | 68 | 340 | 2.0 | 3.0 | 0.00 | 0.00 | 0.00 | 89 | 1014.2 |
| 20260905050003 | 68 | 340 | 1.0 | 2.0 | 0.00 | 0.00 | 0.00 | 89 | 1014.3 |
| 20260905045003 | 68 | 273 | 1.0 | 3.0 | 0.00 | 0.00 | 0.00 | 89 | 1014.3 |
| 20260905044004 | 68 | 273 | 1.0 | 3.0 | 0.00 | 0.00 | 0.00 | 89 | 1014.3 |
| 20260905042004 | 68 | 3 | 2.0 | 3.0 | 0.00 | 0.00 | 0.00 | 89 | 1014.0 |
| 20260905041005 | 68 | 3 | 2.0 | 3.0 | 0.00 | 0.00 | 0.00 | 90 | 1014.2 |
| 20260905040006 | 68 | 3 | 3.0 | 4.0 | 0.00 | 0.00 | 0.00 | 90 | 1014.2 |
| 20260905035005 | 69 | 340 | 3.0 | 5.0 | 0.00 | 0.00 | 0.00 | 90 | 1014.3 |
| 20260905034007 | 69 | 340 | 3.0 | 5.0 | 0.00 | 0.00 | 0.00 | 89 | 1014.3 |
| 20260905033002 | 69 | 273 | 3.0 | 4.0 | 0.00 | 0.00 | 0.00 | 89 | 1014.3 |
| 20260905032003 | 69 | 25 | 3.0 | 5.0 | 0.00 | 0.00 | 0.00 | 89 | 1014.3 |
| 20260905031004 | 69 | 295 | 1.0 | 3.0 | 0.00 | 0.00 | 0.00 | 88 | 1014.3 |
| 20260905023002 | 69 | 318 | 1.0 | 3.0 | 0.00 | 0.00 | 0.00 | 88 | 1014.2 |
| 20260905022004 | 68 | 340 | 3.0 | 4.0 | 0.00 | 0.00 | 0.00 | 88 | 1014.2 |
| 20260905021005 | 68 | 273 | 1.0 | 3.0 | 0.00 | 0.00 | 0.00 | 88 | 1014.1 |
| 20260905020006 | 68 | 250 | 0.0 | 1.0 | 0.00 | 0.00 | 0.00 | 88 | 1014.2 |
| 20260905015002 | 68 | 340 | 1.0 | 2.0 | 0.00 | 0.00 | 0.00 | 88 | 1014.1 |
| 20260905014003 | 68 | 318 | 1.0 | 1.0 | 0.00 | 0.00 | 0.00 | 88 | 1014.1 |
| 20260905013004 | 69 | 318 | 2.0 | 3.0 | 0.00 | 0.00 | 0.00 | 87 | 1014.0 |
| 20260905012005 | 69 | 318 | 1.0 | 1.0 | 0.00 | 0.00 | 0.00 | 87 | 1014.0 |
| 20260905011006 | 70 | 273 | 1.0 | 2.0 | 0.00 | 0.00 | 0.00 | 87 | 1013.8 |
| 20260905010007 | 70 | 295 | 3.0 | 4.0 | 0.00 | 0.00 | 0.00 | 87 | 1014.0 |
| 20260905004001 | 70 | 273 | 3.0 | 6.0 | 0.00 | 0.01 | 0.00 | 87 | 1014.0 |
| 20260905002002 | 71 | 318 | 2.0 | 4.0 | 0.00 | 0.04 | 0.00 | 86 | 1014.0 |
| 20260905001003 | 71 | 318 | 2.0 | 5.0 | 0.00 | 0.07 | 0.00 | 86 | 1013.9 |
| 20260905000012 | 71 | 3 | 1.0 | 2.0 | 0.00 | 0.10 | 0.00 | 85 | 1014.0 |
| 20260904235005 | 71 | 318 | 1.0 | 2.0 | 0.00 | 0.12 | 0.00 | 84 | 1014.0 |
| 20260904233005 | 72 | 318 | 3.0 | 6.0 | 0.00 | 0.17 | 0.00 | 83 | 1014.1 |
| 20260904232006 | 72 | 318 | 4.0 | 5.0 | 0.00 | 0.19 | 0.00 | 83 | 1014.1 |
| 20260904231007 | 72 | 318 | 2.0 | 3.0 | 0.00 | 0.19 | 0.00 | 84 | 1013.9 |
| 20260904230002 | 72 | 3 | 2.0 | 4.0 | 0.00 | 0.19 | 0.00 | 84 | 1013.8 |
| 20260904225003 | 72 | 3 | 4.0 | 5.0 | 0.00 | 0.19 | 0.00 | 84 | 1013.7 |
| 20260904224004 | 72 | 250 | 3.0 | 4.0 | 0.00 | 0.19 | 0.00 | 84 | 1013.7 |
| 20260904221005 | 73 | 340 | 3.0 | 5.0 | 0.00 | 0.19 | 0.00 | 83 | 1013.4 |
| 20260904220006 | 73 | 48 | 2.0 | 3.0 | 0.00 | 0.19 | 0.00 | 83 | 1013.1 |
| 20260904215007 | 73 | 340 | 5.0 | 7.0 | 0.00 | 0.19 | 0.00 | 81 | 1013.2 |
| 20260904214002 | 74 | 25 | 3.0 | 6.0 | 0.00 | 0.19 | 0.00 | 80 | 1012.9 |
| 20260904213003 | 74 | 25 | 3.0 | 7.0 | 0.00 | 0.19 | 0.00 | 80 | 1012.9 |
| 20260904212004 | 75 | 25 | 3.0 | 4.0 | 0.00 | 0.19 | 0.00 | 79 | 1012.8 |
| 20260904211005 | 76 | 3 | 4.0 | 6.0 | 0.00 | 0.19 | 0.00 | 76 | 1012.9 |
| 20260904210006 | 78 | 340 | 3.0 | 6.0 | 0.00 | 0.19 | 0.00 | 73 | 1013.0 |
| 20260904205009 | 77 | 318 | 2.0 | 6.0 | 0.00 | 0.19 | 0.00 | 76 | 1013.1 |
| 20260904204002 | 77 | 228 | 4.0 | 9.0 | 0.00 | 0.19 | 0.00 | 75 | 1013.2 |
| 20260904202002 | 77 | 295 | 2.0 | 4.0 | 0.00 | 0.19 | 0.00 | 75 | 1013.3 |
| 20260904201004 | 79 | 295 | 2.0 | 5.0 | 0.00 | 0.19 | 0.00 | 74 | 1013.7 |
| 20260904200005 | 78 | 318 | 1.0 | 2.0 | 0.00 | 0.19 | 0.00 | 76 | 1013.6 |
| 20260904195006 | 78 | 273 | 2.0 | 4.0 | 0.00 | 0.19 | 0.00 | 76 | 1013.7 |
| 20260904194001 | 77 | 340 | 1.0 | 4.0 | 0.00 | 0.19 | 0.00 | 78 | 1014.0 |
| 20260904193003 | 76 | 295 | 1.0 | 4.0 | 0.00 | 0.19 | 0.00 | 79 | 1013.9 |
| 20260904192003 | 76 | 273 | 3.0 | 5.0 | 0.00 | 0.19 | 0.00 | 78 | 1014.1 |
| 20260904190004 | 76 | 250 | 2.0 | 6.0 | 0.00 | 0.19 | 0.00 | 79 | 1014.3 |
| 20260904185005 | 76 | 273 | 2.0 | 4.0 | 0.00 | 0.19 | 0.00 | 80 | 1014.5 |
| 20260904184006 | 75 | 318 | 2.0 | 6.0 | 0.00 | 0.19 | 0.00 | 81 | 1014.7 |
| 20260904183007 | 75 | 273 | 3.0 | 6.0 | 0.00 | 0.19 | 0.00 | 80 | 1014.9 |
| 20260904182002 | 75 | 318 | 2.0 | 6.0 | 0.00 | 0.19 | 0.00 | 80 | 1015.0 |
| 20260904181003 | 75 | 25 | 2.0 | 3.0 | 0.00 | 0.19 | 0.00 | 80 | 1015.1 |
| 20260904180004 | 76 | 183 | 3.0 | 6.0 | 0.00 | 0.19 | 0.00 | 78 | 1015.2 |
| 20260904175005 | 77 | 295 | 2.0 | 6.0 | 0.00 | 0.19 | 0.00 | 76 | 1015.1 |
| 20260904174007 | 77 | 250 | 4.0 | 6.0 | 0.00 | 0.19 | 0.00 | 75 | 1015.1 |
| 20260904172002 | 76 | 318 | 5.0 | 8.0 | 0.00 | 0.19 | 0.00 | 78 | 1015.6 |
| 20260904170002 | 75 | 273 | 4.0 | 7.0 | 0.00 | 0.19 | 0.00 | 79 | 1015.7 |
| 20260904165003 | 75 | 250 | 2.0 | 5.0 | 0.00 | 0.19 | 0.00 | 79 | 1015.7 |
| 20260904164004 | 75 | 318 | 2.0 | 6.0 | 0.00 | 0.19 | 0.00 | 79 | 1015.8 |
| 20260904162006 | 76 | 318 | 3.0 | 6.0 | 0.00 | 0.19 | 0.00 | 75 | 1015.8 |
| 20260904161007 | 76 | 205 | 3.0 | 7.0 | 0.00 | 0.19 | 0.00 | 75 | 1015.6 |
| 20260904160008 | 77 | 318 | 2.0 | 4.0 | 0.00 | 0.19 | 0.00 | 75 | 1015.7 |
| 20260904155003 | 76 | 273 | 2.0 | 6.0 | 0.00 | 0.19 | 0.00 | 77 | 1015.8 |
| 20260904154004 | 76 | 318 | 2.0 | 3.0 | 0.00 | 0.19 | 0.00 | 77 | 1015.7 |
| 20260904153005 | 76 | 3 | 2.0 | 5.0 | 0.00 | 0.19 | 0.00 | 76 | 1015.7 |